Comanche, TX

6:34 PM CST on February 26, 2017 (GMT -0600)
Comanche

Weather History for KMKN - June, 2014

Change the Weather History Date:

Tuesday, June 10, 2014

  Actual Average (KSEP) Record (KSEP)
Temperature  
Mean Temperature 72 °F -  
Max Temperature 83 °F 86 °F 99 °F (1926)
Min Temperature 60 °F 66 °F 51 °F (1923)
Cooling Degree Days 6    
Growing Degree Days 22 (Base 50)    
Moisture  
Dew Point 56 °F    
Average Humidity 62    
Maximum Humidity 83    
Minimum Humidity 38    
Precipitation  
Precipitation 0.07 in - - ()
Sea Level Pressure  
Sea Level Pressure 29.91 in    
Wind  
Wind Speed 8 mph (NW)    
Max Wind Speed 16 mph    
Max Gust Speed 22 mph    
Visibility 10 miles    
Events      
Averages and records for this station are not official NWS values.
T = Trace of Precipitation, MM = Missing Value Source: NWS Daily Summary

Daily Weather History Graph

Daily Weather History Graph

Search for Another Location

Airport or City:

Trip Planner

Search our weather history database for the weather conditions in past years. The results will help you decide how hot, cold, wet, or windy it might be!

Date:

Astronomy

Jun. 10, 2014 Rise Set
Actual Time 6:28 AM CDT 8:39 PM CDT
Civil Twilight 5:59 AM CDT 9:08 PM CDT
Nautical Twilight 5:25 AM CDT 9:42 PM CDT
Astronomical Twilight 4:48 AM CDT 10:19 PM CDT
Moon 6:14 PM CDT (6/10) 4:25 AM CDT (6/10)
Length of Visible Light 15h 08m
Length of Day
14h 11m
Waxing Gibbous, 92% of the Moon is Illuminated
Jun 10
Waxing Gibbous
Jun 12
Full
Jun 19
Last Quarter
Jun 27
New
Jul 5
First Quarter

Hourly Weather History & Observations

Time (CDT) Temp. Heat Index Dew Point Humidity Pressure Visibility Wind Dir Wind Speed Gust Speed Precip Events Conditions
12:15 AM 67.8 °F - 56.7 °F 67% 29.86 in 10.0 mi WSW 8.1 mph - N/A   Clear
12:35 AM 67.1 °F - 55.4 °F 66% 29.88 in 10.0 mi NW 6.9 mph - N/A   Clear
12:55 AM 67.1 °F - 54.0 °F 63% 29.88 in 10.0 mi NW 9.2 mph - 0.01 in   Clear
1:15 AM 65.8 °F - 54.3 °F 66% 29.88 in 10.0 mi WNW 5.8 mph - N/A   Clear
1:35 AM 65.1 °F - 54.3 °F 68% 29.88 in 10.0 mi WNW 4.6 mph - N/A   Clear
1:55 AM 64.9 °F - 54.7 °F 69% 29.88 in 10.0 mi NW 9.2 mph - N/A   Clear
2:15 AM 64.6 °F - 54.9 °F 71% 29.88 in 10.0 mi NW 8.1 mph - N/A   Clear
2:35 AM 63.9 °F - 55.0 °F 73% 29.88 in 10.0 mi WNW 8.1 mph - N/A   Clear
2:55 AM 63.5 °F - 55.4 °F 75% 29.87 in 10.0 mi WNW 8.1 mph - 0.01 in   Clear
3:15 AM 62.8 °F - 55.4 °F 77% 29.88 in 10.0 mi WNW 6.9 mph - N/A   Clear
3:35 AM 62.6 °F - 55.4 °F 77% 29.88 in 10.0 mi WNW 8.1 mph - N/A   Clear
4:15 AM 62.1 °F - 55.0 °F 78% 29.88 in 10.0 mi WNW 8.1 mph - N/A   Clear
4:35 AM 61.7 °F - 54.9 °F 78% 29.88 in 10.0 mi WNW 9.2 mph - N/A   Clear
4:55 AM 61.7 °F - 54.7 °F 78% 29.89 in 10.0 mi WNW 8.1 mph - N/A   Clear
5:15 AM 61.5 °F - 54.5 °F 78% 29.89 in 10.0 mi WNW 6.9 mph - N/A   Clear
5:35 AM 61.0 °F - 54.5 °F 79% 29.90 in 10.0 mi WNW 6.9 mph - N/A   Clear
5:55 AM 61.2 °F - 54.1 °F 78% 29.90 in 10.0 mi WNW 6.9 mph - 0.01 in   Clear
6:15 AM 60.8 °F - 54.1 °F 79% 29.90 in 10.0 mi WNW 8.1 mph - N/A   Clear
6:35 AM 60.8 °F - 54.1 °F 79% 29.91 in 10.0 mi WNW 8.1 mph - N/A   Clear
6:55 AM 61.0 °F - 54.1 °F 78% 29.92 in 10.0 mi WNW 6.9 mph - N/A   Clear
7:15 AM 61.5 °F - 54.3 °F 77% 29.92 in 10.0 mi WNW 8.1 mph - N/A   Clear
7:35 AM 62.6 °F - 54.5 °F 75% 29.92 in 10.0 mi WNW 6.9 mph - N/A   Clear
7:55 AM 63.9 °F - 54.7 °F 72% 29.93 in 10.0 mi WNW 9.2 mph - N/A   Clear
8:15 AM 65.5 °F - 54.9 °F 68% 29.93 in 10.0 mi NW 10.4 mph 18.4 mph N/A   Clear
8:35 AM 66.9 °F - 55.4 °F 66% 29.94 in 10.0 mi NW 10.4 mph 18.4 mph 0.01 in   Clear
8:55 AM 67.5 °F - 55.6 °F 66% 29.95 in 10.0 mi NNW 11.5 mph 20.7 mph 0.01 in   Clear
9:15 AM 68.4 °F - 55.8 °F 64% 29.95 in 10.0 mi NW 13.8 mph 20.7 mph N/A   Clear
9:35 AM 69.1 °F - 56.1 °F 63% 29.95 in 10.0 mi NNW 16.1 mph 21.9 mph N/A   Scattered Clouds
9:55 AM 69.8 °F - 56.5 °F 63% 29.95 in 10.0 mi NNW 15.0 mph 19.6 mph N/A   Clear
10:15 AM 70.3 °F - 57.2 °F 63% 29.95 in 10.0 mi NNW 11.5 mph - N/A   Clear
10:35 AM 71.4 °F - 57.6 °F 62% 29.95 in 10.0 mi NNW 12.7 mph 20.7 mph N/A   Clear
10:55 AM 72.7 °F - 58.1 °F 60% 29.96 in 10.0 mi NNW 12.7 mph 17.3 mph N/A   Clear
11:15 AM 73.6 °F - 58.6 °F 59% 29.96 in 10.0 mi NNW 12.7 mph 18.4 mph N/A   Scattered Clouds
11:35 AM 74.3 °F - 57.9 °F 57% 29.96 in 10.0 mi NW 12.7 mph 20.7 mph N/A   Scattered Clouds
11:55 AM 74.8 °F - 57.6 °F 55% 29.96 in 10.0 mi WNW 13.8 mph 20.7 mph 0.01 in   Clear
12:15 PM 75.6 °F - 58.5 °F 55% 29.96 in 10.0 mi NNW 13.8 mph 20.7 mph N/A   Clear
1:15 PM 77.9 °F - 59.0 °F 52% 29.95 in 10.0 mi NW 15.0 mph 19.6 mph N/A   Scattered Clouds
1:35 PM 78.3 °F - 58.5 °F 50% 29.95 in 10.0 mi NW 11.5 mph 18.4 mph N/A   Clear
1:55 PM 79.3 °F - 59.2 °F 50% 29.95 in 10.0 mi NW 10.4 mph 18.4 mph N/A   Scattered Clouds
2:35 PM 80.4 °F 80.9 °F 58.5 °F 47% 29.94 in 10.0 mi NW 10.4 mph 19.6 mph N/A   Clear
4:15 PM 82.9 °F 82.7 °F 58.1 °F 43% 29.92 in 10.0 mi NNW 11.5 mph - N/A   Scattered Clouds
4:55 PM 83.3 °F 82.9 °F 57.7 °F 42% 29.91 in 10.0 mi NW 6.9 mph - N/A   Clear
5:15 PM 83.1 °F 82.6 °F 57.0 °F 41% 29.91 in 10.0 mi North 8.1 mph - N/A   Clear
5:35 PM 83.3 °F 82.8 °F 57.0 °F 41% 29.90 in 10.0 mi WNW 6.9 mph - N/A   Clear
6:15 PM 83.3 °F 82.5 °F 56.1 °F 39% 29.89 in 10.0 mi NW 8.1 mph - N/A   Clear
6:55 PM 82.6 °F 81.7 °F 54.9 °F 38% 29.88 in 10.0 mi NNW 6.9 mph - N/A   Clear
7:15 PM 82.4 °F 81.7 °F 54.9 °F 39% 29.88 in 10.0 mi NW 4.6 mph - N/A   Clear
7:35 PM 82.0 °F 81.3 °F 54.1 °F 38% 29.88 in 10.0 mi NW 3.5 mph - 0.01 in   Clear
7:55 PM 80.8 °F 80.9 °F 56.8 °F 44% 29.89 in 10.0 mi NW 3.5 mph - 0.01 in   Clear
8:15 PM 79.3 °F - 57.9 °F 48% 29.89 in 10.0 mi WNW 3.5 mph - N/A   Clear
8:55 PM 78.1 °F - 57.2 °F 49% 29.89 in 10.0 mi West 3.5 mph - N/A   Clear
9:15 PM 78.1 °F - 56.1 °F 47% 29.89 in 10.0 mi West 3.5 mph - N/A   Clear
9:55 PM 77.0 °F - 56.3 °F 49% 29.90 in 10.0 mi Calm Calm - N/A   Clear
10:15 PM 77.4 °F - 55.2 °F 46% 29.90 in 10.0 mi Calm Calm - N/A   Clear
10:35 PM 73.2 °F - 57.0 °F 57% 29.91 in 10.0 mi Calm Calm - N/A   Clear
11:35 PM 69.8 °F - 59.5 °F 70% 29.92 in 10.0 mi NE 5.8 mph - N/A   Clear
11:55 PM 67.1 °F - 61.9 °F 83% 29.93 in 10.0 mi Calm Calm - 0.01 in   Clear